星链-33700 (STARLINK-33700)

导读

STARLINK-33700是美国SpaceX公司星链星座的成员,于2025年4月6日发射升空,属于第二代星链组网卫星,运行在近地低轨道,设计服役寿命超5年。 它依靠霍尔推进器调整轨道,配备高通量通信天线与太阳能阵列,是星链全球互联网组网的组成部分,可为偏远地区提供宽带接入,同时也承担手机直连服务补网任务,不过其部署也引发了太空碰撞、天文观测干扰等争议。

Basic Information
目录编号:
63484
目录名称:
STARLINK-33700
国际标识:
2025-070AA
轨道中心:
EARTH
卫星名称:
星链-33700
卫星全名:
星链-33700 (STARLINK-33700)
卫星状态:
在轨 (已飞行517 天)
发射日期:
2025-04-06 UTC
国别 :
美国 (US)
星等 :
--
Orbit Information
数据来源 国际轨道数据
星历时间: 2026-09-04T23:02:58+0800
11小时前
查看轨道信息
半长轴: 6861.154km
偏心率: 0.0001705
轨道倾角: 43.004°
近地点辐角 273.615°
升交点赤经 329.144°
平近点角 86.451°
近地点: 481.847km
远地点: 484.187km
周期: 94.266分钟
每日圈数: 15.27591
Detailed Information
固有亮度:
5
最大亮度:
2.5
卫星平台:
Starlink V1.0
覆盖范围:
全球
运营商:
太空探索技术公司
运营商所在国:
美国
制造商(研发单位):
太空探索技术公司
制造商所在国:
美国
使用方式:
暂无
Satellite Introduction
Starlink 计划是 SpaceX 推出的全球卫星互联网项目,通过发射低轨道卫星,为全球尤其是偏远地区提供高速、低延迟的互联网服务。自 2019 年起,Starlink 已部署数千颗卫星,旨在缩小全球数字鸿沟,推动互联网普及。该项目还为军事、航空等行业提供通信支持,带来广泛经济效益。
2D Orbit Map
3D Orbit Map
Orbit Altitude Analysis Chart
Orbit Inclination Analysis Chart
Orbit Comprehensive Analysis Chart
View Comprehensive Chart
Conjunction Data List
Event ID Objects TCA Miss Dist (km) Collision Risk Probability Collision Risk Index (CRI) Action
CDM_260907-014005-798106-348421
2026-09-07T
01:40:10+0000
0.320 km
远距离
3.438599E-4 高风险 0.86
CDM_260907-000605-798106-348421
2026-09-07T
00:06:00+0000
1.335 km
极远距离
6.279139E-6 低风险 0.51
CDM_260906-064905-290706-348422
2026-09-06T
06:49:32+0000
1.345 km
极远距离
2.980108E-6 低风险 0.44
CDM_260907-031405-798106-348422
2026-09-07T
03:14:19+0000
1.753 km
极远距离
2.678299E-6 低风险 0.44
CDM_260906-223105-798106-348421
2026-09-06T
22:31:51+0000
2.797 km
极远距离
1.003823E-6 低风险 0.35